Midland, MI

1:07 PM EDT on July 28, 2017 (GMT -0400)
Barstow

Weather History for KIKW - December, 2013

Change the Weather History Date:

Tuesday, December 10, 2013

  Actual Average (KMBS) Record (KMBS)
Temperature  
Mean Temperature 10 °F -  
Max Temperature 19 °F 35 °F 58 °F (2015)
Min Temperature 2 °F 24 °F 2 °F (2013)
Degree Days  
Heating Degree Days 54    
Moisture  
Dew Point 7 °F    
Average Humidity 74    
Maximum Humidity 89    
Minimum Humidity 57    
Precipitation  
Precipitation 0.00 in - - ()
Sea Level Pressure  
Sea Level Pressure 29.99 in    
Wind  
Wind Speed 9 mph (SW)    
Max Wind Speed 21 mph    
Max Gust Speed 28 mph    
Visibility 9 miles    
Events Snow    
Averages and records for this station are not official NWS values.
T = Trace of Precipitation, MM = Missing Value Source: NWS Daily Summary

Daily Weather History Graph

Daily Weather History Graph

Search for Another Location

Airport or City:

Trip Planner

Search our weather history database for the weather conditions in past years. The results will help you decide how hot, cold, wet, or windy it might be!

Date:

Astronomy

Dec. 10, 2013 Rise Set
Actual Time 7:59 AM EST 5:00 PM EST
Civil Twilight 7:27 AM EST 5:32 PM EST
Nautical Twilight 6:51 AM EST 6:08 PM EST
Astronomical Twilight 6:16 AM EST 6:43 PM EST
Moon 1:10 PM EST (12/10) 1:06 AM EST (12/10)
Length of Visible Light 10h 05m
Length of Day
9h 00m
First Quarter, 61% of the Moon is Illuminated
Dec 10
First Quarter
Dec 17
Full
Dec 25
Last Quarter
Jan 1
New
Jan 7
First Quarter

Hourly Weather History & Observations

Time (EST) Temp. Windchill Dew Point Humidity Pressure Visibility Wind Dir Wind Speed Gust Speed Precip Events Conditions
12:13 AM 14.9 °F 0.9 °F 6.4 °F 69% 30.05 in 10.0 mi West 12.7 mph 20.7 mph N/A Snow Light Snow
12:33 AM 14.5 °F 3.6 °F 6.3 °F 70% 30.06 in 10.0 mi West 8.1 mph 17.3 mph N/A   Overcast
12:52 AM 13.5 °F -3.2 °F 3.7 °F 65% 30.06 in 10.0 mi West 17.3 mph 26.5 mph N/A   Mostly Cloudy
1:13 AM 12.6 °F -0.6 °F 2.3 °F 64% 30.06 in 10.0 mi West 10.4 mph 21.9 mph N/A   Scattered Clouds
1:32 AM 11.8 °F 0.3 °F 2.3 °F 66% 30.06 in 10.0 mi WSW 8.1 mph - N/A   Clear
1:53 AM 11.1 °F 0.4 °F 2.1 °F 67% 30.06 in 10.0 mi WSW 6.9 mph - N/A   Clear
2:13 AM 10.9 °F -0.8 °F 2.3 °F 68% 30.07 in 10.0 mi WSW 8.1 mph - N/A   Clear
2:32 AM 10.4 °F 0.8 °F 2.1 °F 69% 30.07 in 10.0 mi WSW 5.8 mph - N/A   Clear
2:53 AM 9.5 °F 1.2 °F 2.1 °F 72% 30.08 in 10.0 mi WSW 4.6 mph - N/A   Scattered Clouds
3:12 AM 9.3 °F -0.5 °F 2.3 °F 73% 30.08 in 10.0 mi WSW 5.8 mph - N/A   Mostly Cloudy
3:33 AM 9.9 °F 3.4 °F 3.0 °F 74% 30.09 in 10.0 mi WSW 3.5 mph - N/A   Overcast
3:53 AM 10.8 °F 0.0 °F 3.2 °F 72% 30.08 in 10.0 mi WSW 6.9 mph - N/A   Overcast
4:12 AM 10.9 °F 1.4 °F 3.4 °F 72% 30.07 in 10.0 mi West 5.8 mph - N/A Snow Light Snow
4:33 AM 10.6 °F 4.3 °F 4.3 °F 76% 30.07 in 7.0 mi WSW 3.5 mph - N/A Snow Light Snow
4:53 AM 10.6 °F - 4.1 °F 75% 30.06 in 10.0 mi Calm Calm - N/A   Overcast
5:12 AM 10.0 °F - 3.7 °F 76% 30.04 in - Calm Calm - N/A   Unknown
5:33 AM 7.5 °F - 2.5 °F 80% 30.04 in 10.0 mi Calm Calm - N/A   Mostly Cloudy
5:53 AM 6.3 °F - 0.7 °F 78% 30.04 in 10.0 mi Calm Calm - N/A   Scattered Clouds
6:12 AM 5.5 °F - 1.8 °F 84% 30.03 in 10.0 mi Calm Calm - N/A   Clear
6:33 AM 4.1 °F - 1.4 °F 89% 30.03 in 10.0 mi Calm Calm - N/A   Clear
6:53 AM 2.8 °F - -0.0 °F 88% 30.02 in 10.0 mi Calm Calm - N/A   Scattered Clouds
7:12 AM 4.1 °F - 0.7 °F 86% 30.02 in 10.0 mi Calm Calm - N/A   Clear
7:33 AM 3.9 °F - 0.5 °F 86% 30.00 in 10.0 mi Calm Calm - N/A Snow Light Snow
7:52 AM 3.2 °F - -0.4 °F 85% 30.00 in 10.0 mi Calm Calm - N/A   Scattered Clouds
8:13 AM 6.4 °F -0.5 °F 3.2 °F 87% 29.99 in 4.0 mi South 3.5 mph - N/A Snow Light Snow
8:32 AM 7.5 °F -1.1 °F 4.1 °F 86% 29.97 in 4.0 mi South 4.6 mph - N/A Snow Light Snow
8:41 AM 8.1 °F -2.0 °F 4.6 °F 86% 29.97 in 10.0 mi South 5.8 mph - N/A   Scattered Clouds
9:13 AM 9.0 °F -0.9 °F 5.5 °F 86% 29.97 in 10.0 mi South 5.8 mph - N/A   Clear
9:33 AM 9.3 °F -0.5 °F 5.7 °F 85% 29.97 in 10.0 mi South 5.8 mph - N/A   Clear
9:52 AM 11.3 °F 1.9 °F 6.8 °F 82% 29.97 in 10.0 mi South 5.8 mph - N/A   Scattered Clouds
10:13 AM 12.7 °F 0.4 °F 7.5 °F 80% 29.96 in 7.0 mi South 9.2 mph - N/A Snow Light Snow
10:33 AM 14.7 °F -0.5 °F 8.6 °F 77% 29.95 in 10.0 mi South 15.0 mph - N/A Snow Light Snow
10:52 AM 14.9 °F -0.3 °F 8.6 °F 76% 29.94 in 10.0 mi South 15.0 mph - N/A   Scattered Clouds
11:13 AM 15.4 °F 1.6 °F 9.0 °F 76% 29.92 in 5.0 mi SSW 12.7 mph 17.3 mph N/A Snow Light Snow
11:33 AM 15.3 °F 0.8 °F 9.5 °F 78% 29.91 in 4.0 mi South 13.8 mph 18.4 mph N/A   Haze
11:52 AM 15.6 °F -0.9 °F 8.8 °F 74% 29.89 in 10.0 mi SSW 18.4 mph 24.2 mph N/A   Scattered Clouds
12:13 PM 16.3 °F 1.6 °F 7.2 °F 67% 29.87 in 10.0 mi South 15.0 mph 20.7 mph N/A   Clear
12:33 PM 17.1 °F 4.3 °F 5.0 °F 59% 29.86 in 10.0 mi SSW 11.5 mph 21.9 mph N/A   Clear
12:52 PM 17.4 °F 2.4 °F 4.6 °F 57% 29.86 in 10.0 mi SSW 16.1 mph 25.3 mph N/A   Clear
1:13 PM 16.7 °F 0.5 °F 3.9 °F 57% 29.86 in 10.0 mi SSW 18.4 mph 25.3 mph N/A   Mostly Cloudy
1:33 PM 16.7 °F 1.5 °F 5.4 °F 61% 29.85 in 7.0 mi SSW 16.1 mph 26.5 mph N/A   Overcast
1:53 PM 18.0 °F 1.3 °F 7.5 °F 64% 29.84 in 10.0 mi SW 20.7 mph 27.6 mph N/A   Mostly Cloudy
2:13 PM 18.0 °F 3.1 °F 9.0 °F 68% 29.84 in 7.0 mi SW 16.1 mph 26.5 mph N/A   Scattered Clouds
2:32 PM 18.1 °F 5.0 °F 9.5 °F 69% 29.85 in 10.0 mi SW 12.7 mph 17.3 mph N/A   Mostly Cloudy
2:53 PM 19.4 °F 5.5 °F 11.3 °F 71% 29.85 in 10.0 mi SW 15.0 mph 24.2 mph N/A Snow Light Snow
3:13 PM 19.4 °F 5.5 °F 11.3 °F 71% 29.86 in 10.0 mi SW 15.0 mph - N/A   Scattered Clouds
3:32 PM 19.9 °F 7.3 °F 11.7 °F 70% 29.87 in 10.0 mi SW 12.7 mph 17.3 mph N/A   Scattered Clouds
3:53 PM 19.8 °F 7.7 °F 11.7 °F 71% 29.88 in 10.0 mi WSW 11.5 mph 18.4 mph N/A   Scattered Clouds
4:13 PM 19.9 °F 6.2 °F 11.8 °F 71% 29.89 in 10.0 mi WSW 15.0 mph 20.7 mph N/A   Scattered Clouds
4:32 PM 19.4 °F 8.6 °F 12.2 °F 74% 29.91 in 10.0 mi WSW 9.2 mph 17.3 mph N/A   Clear
4:53 PM 19.4 °F 7.9 °F 13.1 °F 76% 29.92 in 7.0 mi WSW 10.4 mph 18.4 mph N/A Snow Light Snow
5:13 PM 19.4 °F 8.6 °F 12.7 °F 75% 29.94 in 10.0 mi WSW 9.2 mph - N/A Snow Light Snow
5:32 PM 19.2 °F 6.4 °F 11.3 °F 71% 29.94 in 10.0 mi WSW 12.7 mph 20.7 mph N/A   Scattered Clouds
5:53 PM 18.5 °F 7.5 °F 10.4 °F 71% 29.95 in 10.0 mi WSW 9.2 mph - N/A   Clear
6:13 PM 18.5 °F 6.1 °F 10.2 °F 70% 29.96 in 10.0 mi West 11.5 mph - N/A   Clear
6:32 PM 18.3 °F 6.6 °F 10.2 °F 71% 29.98 in 10.0 mi West 10.4 mph - N/A   Clear
6:53 PM 18.3 °F 6.6 °F 10.6 °F 72% 29.99 in 10.0 mi WSW 10.4 mph - N/A   Scattered Clouds
7:13 PM 18.3 °F 5.9 °F 11.3 °F 74% 30.00 in 10.0 mi WSW 11.5 mph 17.3 mph N/A Snow Light Snow
7:32 PM 18.1 °F 7.1 °F 12.9 °F 80% 30.02 in 2.5 mi WSW 9.2 mph - N/A Snow Light Snow
7:53 PM 17.6 °F 8.2 °F 12.0 °F 79% 30.03 in 10.0 mi West 6.9 mph - N/A   Scattered Clouds
8:13 PM 17.6 °F 8.2 °F 10.9 °F 75% 30.04 in 10.0 mi West 6.9 mph 19.6 mph N/A   Clear
8:32 PM 17.2 °F 6.8 °F 9.5 °F 72% 30.04 in 10.0 mi West 8.1 mph 16.1 mph N/A   Clear
8:53 PM 16.5 °F 5.1 °F 9.3 °F 73% 30.04 in 10.0 mi West 9.2 mph - N/A   Clear
9:13 PM 16.2 °F 5.5 °F 9.0 °F 73% 30.05 in 10.0 mi West 8.1 mph - N/A   Clear
9:32 PM 16.2 °F 4.7 °F 8.1 °F 70% 30.06 in 10.0 mi West 9.2 mph 17.3 mph N/A   Clear
9:53 PM 15.8 °F 6.1 °F 8.2 °F 72% 30.08 in 10.0 mi West 6.9 mph - N/A   Clear
10:13 PM 14.9 °F 5.0 °F 8.4 °F 76% 30.09 in 10.0 mi WSW 6.9 mph - N/A   Clear
10:32 PM 14.5 °F 4.6 °F 8.6 °F 77% 30.09 in 10.0 mi WSW 6.9 mph - N/A   Clear
10:53 PM 14.7 °F 3.8 °F 9.1 °F 79% 30.10 in 10.0 mi WSW 8.1 mph - N/A   Scattered Clouds
11:13 PM 15.3 °F 7.9 °F 9.7 °F 79% 30.11 in 10.0 mi SW 4.6 mph - N/A Snow Light Snow
11:32 PM 16.2 °F 6.5 °F 11.1 °F 81% 30.11 in 10.0 mi WSW 6.9 mph - N/A Snow Light Snow
11:53 PM 16.5 °F 4.3 °F 10.6 °F 77% 30.11 in 10.0 mi WSW 10.4 mph - N/A Snow Light Snow